Date String (YYYY-MM-DD hh:mm:ss) UTC,Instrument flags,Ambient pressure (hPa),Sample flow (lpm),Bypass flow (lpm),Sample temperature (°C),Ambient temperature (°C),ASC tube jacket temperature (°C),LED temperature (°C),Box temperature (°C),Sample RH (%),Span deviation,Mass concentration (μg/m³),Mass concentration (μg/m³),Mass concentration (μg/m³)
DateTimeUTC,F1_M11,P_M11,Q1_M11,Q2_M11,T1_M11,T2_M11,T3_M11,T4_M11,T5_M11,U1_M11,ZSPAN_M11,X0_M11,X2_M11,X1_M11
2022-04-11 19:00:00,,0812.6,5.01,0.00,24.7,24.0,00.0,33.6,26.6,08.3,0000.0,0021.23,0006.38,0003.56
2022-04-11 19:01:00,,0812.6,4.99,0.00,24.7,24.0,00.0,33.6,26.6,08.4,0000.0,0021.21,0006.35,0003.55
2022-04-11 19:02:00,,0812.5,4.99,0.00,24.7,24.0,00.0,33.6,26.6,08.3,0000.0,0021.73,0006.40,0003.56
2022-04-11 19:03:00,,0812.4,5.01,0.00,24.7,24.0,00.0,33.6,26.5,08.5,0000.0,0021.42,0006.45,0003.55
2022-04-11 19:04:00,,0812.4,4.98,0.00,24.7,24.0,00.0,33.6,26.6,08.5,0000.0,0021.47,0006.47,0003.54
2022-04-11 19:05:00,,0812.4,5.01,0.00,24.8,24.0,00.0,33.6,26.6,08.5,0000.0,0021.13,0006.52,0003.54
2022-04-11 19:06:00,,0812.4,5.02,0.00,24.8,24.0,00.0,33.6,26.6,08.4,0000.0,0020.92,0006.60,0003.53
2022-04-11 19:07:00,,0812.3,5.00,0.00,24.8,24.0,00.0,33.6,26.7,08.5,0000.0,0022.16,0006.61,0003.51
2022-04-11 19:08:00,,0812.3,5.00,0.00,24.8,24.1,00.0,33.6,26.7,08.4,0000.0,0022.82,0006.57,0003.49
2022-04-11 19:09:00,,0812.3,4.99,0.00,24.8,24.1,00.0,33.7,26.7,08.9,0000.0,0022.59,0006.52,0003.48
2022-04-11 19:10:00,,0812.3,5.02,0.00,24.9,24.1,00.0,33.7,26.7,08.6,0000.0,0022.95,0006.49,0003.46
2022-04-11 19:11:00,,0812.3,5.00,0.00,24.9,24.2,00.0,33.7,26.7,08.8,0000.0,0022.74,0006.56,0003.48
2022-04-11 19:12:00,,0812.1,4.99,0.00,24.9,24.2,00.0,33.7,26.7,08.9,0000.0,0023.83,0006.66,0003.49
2022-04-11 19:13:00,,0812.1,5.00,0.00,24.9,24.2,00.0,33.7,26.8,08.6,0000.0,0025.31,0006.68,0003.48
2022-04-11 19:14:00,,0812.0,5.01,0.00,24.9,24.2,00.0,33.7,26.8,08.7,0000.0,0026.37,0006.65,0003.47
2022-04-11 19:15:00,,0812.1,4.98,0.00,24.9,24.2,00.0,33.7,26.7,08.7,0000.0,0026.81,0006.59,0003.46
2022-04-11 19:16:00,,0812.0,4.99,0.00,24.9,24.2,00.0,33.7,26.8,08.4,0000.0,0027.43,0006.63,0003.46
2022-04-11 19:17:00,,0812.0,5.01,0.00,24.9,24.2,00.0,33.8,26.8,08.5,0000.0,0028.34,0006.56,0003.46
2022-04-11 19:18:00,,0811.9,4.99,0.00,24.9,24.2,00.0,33.8,26.8,09.0,0000.0,0028.39,0006.63,0003.46
2022-04-11 19:19:00,,0812.0,5.01,0.00,25.0,24.2,00.0,33.8,26.9,08.9,0000.0,0028.77,0006.65,0003.47
2022-04-11 19:20:00,,0811.9,4.99,0.00,25.0,24.3,00.0,33.8,26.9,08.5,0000.0,0030.25,0006.71,0003.48
2022-04-11 19:21:00,,0812.0,4.99,0.00,25.0,24.3,00.0,33.8,26.8,08.3,0000.0,0030.10,0006.73,0003.50
2022-04-11 19:22:00,,0811.9,5.01,0.00,25.0,24.3,00.0,33.8,26.9,08.5,0000.0,0030.02,0006.75,0003.48
2022-04-11 19:23:00,,0811.9,5.01,0.00,25.0,24.3,00.0,33.8,26.9,08.7,0000.0,0029.69,0006.72,0003.47
2022-04-11 19:24:00,,0811.9,4.99,0.00,25.0,24.3,00.0,33.8,26.9,08.4,0000.0,0028.15,0006.70,0003.46
2022-04-11 19:25:00,,0811.9,4.98,0.00,25.0,24.3,00.0,33.8,26.9,08.2,0000.0,0027.49,0006.71,0003.47
2022-04-11 19:26:00,,0811.9,5.01,0.00,25.0,24.4,00.0,33.9,26.9,08.1,0000.0,0026.95,0006.82,0003.48
2022-04-11 19:27:00,,0811.8,5.00,0.00,25.1,24.4,00.0,33.9,27.0,08.3,0000.0,0028.36,0006.81,0003.48
2022-04-11 19:28:00,,0811.7,4.99,0.00,25.1,24.4,00.0,33.9,27.0,08.7,0000.0,0028.20,0006.87,0003.49
2022-04-11 19:29:00,,0811.6,5.01,0.00,25.1,24.4,00.0,33.9,27.0,08.6,0000.0,0027.53,0006.88,0003.49
2022-04-11 19:30:00,,0811.7,4.99,0.00,25.1,24.4,00.0,33.9,27.0,08.5,0000.0,0027.11,0006.86,0003.48
2022-04-11 19:31:00,,0811.7,5.01,0.00,25.1,24.5,00.0,33.9,27.0,08.6,0000.0,0026.31,0006.79,0003.48
2022-04-11 19:32:00,,0811.6,5.01,0.00,25.2,24.5,00.0,33.9,27.0,08.7,0000.0,0026.29,0006.76,0003.47
2022-04-11 19:33:00,,0811.6,5.00,0.00,25.2,24.5,00.0,34.0,27.1,08.7,0000.0,0026.41,0006.69,0003.47
2022-04-11 19:34:00,,0811.5,4.99,0.00,25.2,24.5,00.0,34.0,27.1,08.5,0000.0,0026.64,0006.71,0003.48
2022-04-11 19:35:00,,0811.5,5.01,0.00,25.2,24.6,00.0,34.0,27.1,08.7,0000.0,0025.23,0006.67,0003.48
2022-04-11 19:36:00,,0811.5,5.00,0.00,25.2,24.6,00.0,34.0,27.1,09.0,0000.0,0026.38,0006.65,0003.47
2022-04-11 19:37:00,,0811.5,4.99,0.00,25.3,24.6,00.0,34.0,27.2,09.0,0000.0,0026.95,0006.64,0003.48
2022-04-11 19:38:00,,0811.5,4.99,0.00,25.3,24.6,00.0,34.1,27.2,08.7,0000.0,0026.01,0006.68,0003.48
2022-04-11 19:39:00,,0811.4,5.00,0.00,25.3,24.6,00.0,34.1,27.1,08.3,0000.0,0025.35,0006.71,0003.47
2022-04-11 19:40:00,,0811.4,5.01,0.00,25.2,24.6,00.0,34.1,27.1,08.0,0000.0,0026.22,0006.67,0003.45
2022-04-11 19:41:00,,0811.4,4.99,0.00,25.2,24.5,00.0,34.1,27.1,08.1,0000.0,0026.17,0006.66,0003.45
2022-04-11 19:42:00,,0811.4,5.00,0.00,25.2,24.5,00.0,34.1,27.1,08.5,0000.0,0026.41,0006.70,0003.45
2022-04-11 19:43:00,,0811.3,5.01,0.00,25.2,24.5,00.0,34.1,27.1,08.4,0000.0,0027.54,0006.75,0003.44
2022-04-11 19:44:00,,0811.2,5.01,0.00,25.2,24.5,00.0,34.1,27.1,08.1,0000.0,0027.67,0006.80,0003.43
2022-04-11 19:45:00,,0811.2,5.00,0.00,25.3,24.6,00.0,34.1,27.1,08.3,0000.0,0027.80,0006.78,0003.42
2022-04-11 19:46:00,,0811.2,4.98,0.00,25.3,24.6,00.0,34.1,27.1,08.8,0000.0,0028.63,0006.81,0003.42
2022-04-11 19:47:00,,0811.1,5.02,0.00,25.3,24.6,00.0,34.1,27.1,08.4,0000.0,0028.52,0006.81,0003.42
2022-04-11 19:48:00,,0811.2,5.00,0.00,25.3,24.6,00.0,34.2,27.2,08.4,0000.0,0028.01,0006.76,0003.41
2022-04-11 19:49:00,,0811.1,4.99,0.00,25.3,24.6,00.0,34.2,27.1,08.1,0000.0,0027.77,0006.78,0003.41
2022-04-11 19:50:00,,0811.0,5.01,0.00,25.3,24.6,00.0,34.2,27.2,08.3,0000.0,0029.08,0006.79,0003.41
2022-04-11 19:51:00,,0811.0,4.99,0.00,25.3,24.6,00.0,34.2,27.2,08.3,0000.0,0029.37,0006.84,0003.42
2022-04-11 19:52:00,,0811.0,5.01,0.00,25.3,24.6,00.0,34.2,27.2,08.1,0000.0,0029.24,0006.94,0003.41
2022-04-11 19:53:00,,0810.9,4.99,0.00,25.3,24.6,00.0,34.2,27.1,08.2,0000.0,0028.29,0006.93,0003.39
2022-04-11 19:54:00,,0810.9,5.02,0.00,25.3,24.6,00.0,34.2,27.2,08.1,0000.0,0027.14,0006.81,0003.38
2022-04-11 19:55:00,,0810.9,5.00,0.00,25.3,24.7,00.0,34.2,27.2,08.4,0000.0,0027.51,0006.75,0003.36
2022-04-11 19:56:00,,0810.9,5.00,0.00,25.4,24.7,00.0,34.2,27.3,08.0,0000.0,0027.25,0006.75,0003.36
2022-04-11 19:57:00,,0810.9,5.01,0.00,25.4,24.7,00.0,34.2,27.3,08.3,0000.0,0026.43,0006.72,0003.35
2022-04-11 19:58:00,,0810.9,5.00,0.00,25.4,24.8,00.0,34.3,27.3,08.3,0000.0,0025.42,0006.74,0003.35
2022-04-11 19:59:00,,0810.9,4.99,0.00,25.4,24.8,00.0,34.3,27.3,08.8,0000.0,0024.72,0006.76,0003.34
